Terminal Aerodrome Forecast
Issued by NWS

Home | Current Version | Previous Version | Text Only | Print | Product List | Glossary On
Versions: 1 2 3 4 5 6 7 8 9 10 11 12 13 14 15 16 17 18 19 20 21 22 23 24 25 26 27 28 29 30 31 32 33 34 35 36 37 38 39 40 41 42 43 44 45 46 47
000
FTUS45 KVEF 171100
TAFLAS
TAF
KLAS 171127Z 1712/1812 VRB06KT P6SM FEW100 SCT250
     FM172000 12007KT P6SM SCT080 BKN150
     FM180200 17010KT P6SM SCT080 BKN150
     FM180600 20006KT P6SM SCT150=

USA.gov is the U.S. government's official web portal to all federal, state and local government web resources and services.